www.pogodaiklimat.ru

Погода и климат >> Архив погоды >> Финляндия >> Хельсинки Кайсаниеми


ПОГОДА в Хельсинки Кайсаниеми

  • Прогноз погоды в Хельсинки Кайсаниеми
  • Монитор погоды в Хельсинки Кайсаниеми

АРХИВ ПОГОДЫ в Хельсинки Кайсаниеми

Время (UTC), дата Ветер
(напр.,м/с)
 
Видим.   Явления Облачность Т
(С)
Тd
(С)
f
(%)
Тe
(С)
Тes
(С)
Комфортность P
(гПа)
Po
(гПа)
Тmin
(С)
Tmax
(С)
R
(мм)
R24
(мм)
S
(см)
21 8.09 В 5-8
{9}
50 км 9/0
[]
+17.0 +13.5 80 +16 +16 1023.6 1023.2
00 9.09 В 4-8
{8}
40 км 6/0
[]
+16.6 +14.2 86 +16 +16 1022.2 1021.8
03 9.09 В 4-6
{8}
29 км в посл. час дождь {ливн. осадки} 9/4 200 м
[]
+15.9 +14.8 93 +15 +15 1021.0 1020.5 0.2
06 9.09 В 5-7
{7}
19 км {ливн. осадки, дождь} 9/9 100 м
[]
+16.9 +15.6 92 +16 +16 1020.4 1020.0 +14.8 +17.1 0.2
09 9.09 Ю 2-4
{7}
8000 м слаб. ливневой дождь 9/9 100 м
[]
+16.7 +16.1 96 +17 +17 1020.9 1020.4 2
12 9.09 ЮВ 3-4
{4}
29 км {ливн. осадки, дождь} 9/9 600 м
[]
+18.0 +15.8 87 +18 +19 1021.0 1020.6
15 9.09 В 3-4
{5}
27 км 4/4 600 м
[]
+18.1 +15.7 86 +18 +19 1020.7 1020.2
18 9.09 В 3-5
{5}
10 км ясно +16.3 +15.5 95 +16 +16 1021.5 1021.1 +16.2 +18.7 4
21 9.09 В 4-6
{6}
5000 м дымка 9/9 50 м
[]
+15.9 +15.5 97 +15 +15 1021.6 1021.2
00 10.09 В 3-5
{7}
7000 м дымка {ливн. осадки, дождь} 6/6
[]
+16.0 +15.3 96 +15 +15 1020.7 1020.2
03 10.09 В 3-4
{5}
4000 м дымка 9/0 50 м
[]
+16.2 +15.8 97 +16 +16 1020.1 1019.7
06 10.09 В 4-5
{6}
14 км {дымка} 1/1 50 м
[]
+17.8 +16.5 92 +18 +18 1019.9 1019.4 +15.7 +17.8
09 10.09 В 5-7
{9}
30 км ясно +20.0 +15.1 73 +22 +25 комфорт 1020.1 1019.6
12 10.09 -07
{08}
н/о
15 10.09 В 4-6
{8}
28 км ясно +20.5 +14.5 68 +23 +24 комфорт 1018.5 1018.1
18 10.09 ЮВ 4-7
{11}
35 км 1/1
[]
+20.4 +13.7 65 +23 +23 комфорт 1018.3 1017.9 +15.7 +17.8
21 10.09 ЮВ 3-5
{6}
40 км слаб. ливневой дождь 10/0 2000 м
[]
+19.6 +11.4 59 +21 +21 комфорт 1018.0 1017.6
00 11.09 ЮВ 4-8
{8}
30 км {ливн. осадки, дождь} ясно +18.0 +13.3 74 +18 +18 1017.4 1016.9
03 11.09 Ю 6-10
{10}
45 км 1/0 1500 м
[]
+16.7 +11.2 70 +16 +16 1016.7 1016.3
06 11.09 Ю 7-10
{11}
40 км ясно +16.7 +11.3 70 +15 +16 1015.6 1015.2 +15.9 +20.4
09 11.09 Ю 7-12
{12}
12 км слаб. ливневой дождь 10/0 600 м
[]
+15.2 +11.7 80 +13 +14 1014.8 1014.3 0.2
12 11.09 Ю 8-13
{14}
35 км {ливн. осадки, дождь} 9/9 300 м
[]
+16.5 +13.3 81 +15 +15 1014.2 1013.7
15 11.09 Ю 7-13
{13}
35 км {ливн. осадки, дождь} 9/9 300 м
[]
+16.9 +14.3 85 +16 +16 1012.9 1012.4
18 11.09 ЮЗ 5-10
{11}
16 км слаб. ливневой дождь 9/6 300 м
[]
+16.8 +15.1 90 +16 +16 1013.1 1012.7 +15.0 +17.4 0.5
21 11.09 ЮЗ 5-11
{11}
21 км в посл. час дождь {ливн. осадки} 9/9 300 м
[]
+16.2 +14.5 90 +15 +15 1014.1 1013.7 1
00 12.09 ЮЗ 6-11
{11}
30 км {ливн. осадки, дождь} 4/1 600 м
[]
+16.0 +13.5 85 +15 +15 1014.8 1014.3
03 12.09 ЮЗ 7-11
{12}
1700 м ливневой дождь {морось} 10/10 300 м
[]
+15.4 +13.4 88 +14 +14 1013.8 1013.3 0.1
06 12.09 ЮЗ 8-12
{14}
35 км {ливн. осадки, морось} 9/6 600 м
[]
+16.1 +12.5 79 +14 +15 1013.3 1012.8 +14.9 +16.9 4
09 12.09 ЮЗ 9 12 км слаб. ливневой дождь 9/9 300 м
[]
+15.3 +13.2 87 +13 +13 1012.0 1011.5 0.2
12 12.09 ЮЗ 7-13
{13}
45 км {ливн. осадки, дождь} 9/9 300 м
[]
+16.7 +11.9 73 +15 +16 1012.1 1011.7
15 12.09 З 6-9
{14}
30 км 1/0 1000 м
[]
+16.5 +10.5 68 +15 +16 1012.5 1012.1
18 12.09 ЮЗ 4 23 км ясно +15.2 +12.3 83 +14 +14 1013.2 1012.8 +15.0 +17.2 0.4
21 12.09 ЮЗ 4-10
{10}
25 км 6/0 1000 м
[]
+15.5 +12.5 82 +15 +15 1012.3 1011.8
00 13.09 ЮЗ 3-6
{7}
30 км 9/0 2000 м
[]
+15.3 +12.0 81 +15 +15 1011.0 1010.5
03 13.09 З 4-6
{8}
30 км 9/9
[]
+15.1 +10.4 73 +14 +14 1009.8 1009.3
06 13.09 З 4-7
{8}
27 км {ливн. осадки, дождь} 9/9
[]
+15.0 +11.1 77 +14 +14 1009.1 1008.7 +14.7 +15.6
09 13.09 СЗ 6-9
{9}
30 км слаб. ливневой дождь 9/9 600 м
[]
+13.5 +8.9 74 +11 +12 1008.7 1008.2 0.1
12 13.09 З 3-5
{5}
21 км слаб. дождь 6/6 600 м
[]
+12.2 +11.5 95 +10 +12 1008.3 1007.9 2
15 13.09 СЗ 4-6
{11}
50 км в посл. час дождь {ливн. осадки} 6/1 1000 м
[]
+12.2 +10.0 86 +10 +11 1008.8 1008.4 0.3
18 13.09 СЗ 5-7
{9}
50 км {ливн. осадки, дождь} ясно +11.6 +8.1 79 +9 +9 1010.7 1010.3 +11.1 +16.5 9
21 13.09 З 4-6
{7}
50 км ясно +10.1 +6.9 81 +7 +7 1011.7 1011.3
00 14.09 З 4-6
{9}
50 км ясно +9.9 +6.3 78 +7 +7 1012.9 1012.5
03 14.09 З 5-7
{7}
50 км ясно +9.4 +6.3 81 +6 +6 1014.0 1013.5
06 14.09 З 4-7
{8}
45 км ясно +10.4 +6.4 76 +8 +9 1014.7 1014.2 +9.0 +11.6
09 14.09 СЗ 6-11
{12}
50 км 9/9 1000 м
[]
+12.8 +5.2 60 +11 +11 1015.2 1014.8
12 14.09 СЗ 7-11
{11}
23 км слаб. ливневой дождь 6/6 1000 м
[]
+12.3 +6.2 66 +10 +10 1015.2 1014.8 0.1
15 14.09 СЗ 3-5
{7}
50 км в посл. час дождь {ливн. осадки, метель} 6/6 1000 м
[]
+12.4 +6.8 69 +11 +11 1015.2 1014.7 0.3
18 14.09 З 5-7
{9}
50 км {ливн. осадки, метель} 6/6 1000 м
[]
+11.4 +4.7 63 +9 +9 1016.2 1015.7 +10.3 +14.6 0.6
21 14.09 З 3-4
{6}
50 км ясно +9.5 +5.1 74 +7 +7 1015.3 1014.9
00 15.09 Ю 1-2
{2}
45 км 1/0
[]
+6.8 +5.9 94 +6 +6 1012.4 1011.9
03 15.09 ЮЗ 5-7
{11}
9000 м слаб. дождь {морось} 9/9 300 м
[]
+10.5 +8.9 90 +7 +7 1007.3 1006.9 1
06 15.09 ЮЗ 4-7
{8}
8000 м дождь {морось} 9/9 200 м
[]
+10.9 +9.9 94 +8 +8 1000.7 1000.3 +6.6 +12.6 8
09 15.09 З 5-9
{10}
19 км слаб. дождь 9/9 300 м
[]
+12.4 +11.3 93 +10 +10 994.1 993.7 1
12 15.09 З 5-9
{9}
20 км слаб. ливневой дождь 9/9 200 м
[]
+13.0 +11.7 92 +11 +11 989.4 989.0 0.1
15 15.09 З 4-8
{8}
50 км в посл. час дождь {ливн. осадки} ясно +12.3 +9.2 81 +10 +11 989.2 988.7 0.1
18 15.09 З 6-9
{11}
45 км {ливн. осадки, дождь} ясно +11.8 +7.8 76 +9 +9 990.3 989.9 +10.7 +13.5 13

 

Местоположение метеостанции Хельсинки Кайсаниеми (Финляндия): широта 60.18 долгота 24.94 высота над уровнем моря 4 м.

В архиве по умолчанию представлена погода в Хельсинки Кайсаниеми за последнюю неделю. Архивные данные за месяц целиком и за предыдущие месяцы, начиная с января 2011 года, Вы можете получить, выбрав интересующий диапазон дат из раскрывающегося списка и нажав кнопку "Ввод!".


*Определитесь, кто Вы:
робот инопланетянин человек

Внимание! Время в таблицах - всемирное. Для получения местного времени необходимо прибавить поправку, которая равна 1 ч.

Смотрите также архив погоды в соседних городах и на ближайших метеорологических станциях:

Погода в Хельсинки университете (Финляндия) (2 км)
Погода в Эспо Тапиола (Финляндия) (8 км)
Погода на Острове Хармая (Финляндия) (9 км)
Погода в Хельсинки (Финляндия) (17 км)
Погода в Эспо Нууксио (Финляндия) (24 км)
Погода на Хельсинском маяке (Финляндия) (26 км)
Погода в Килпилахти (Финляндия) (36 км)
Погода на Эмасало (Финляндия) (38 км)
Погода в Вихти (Финляндия) (40 км)
Погода в Нурмиярви (Финляндия) (40 км)

Пояснения к столбцам:

Ветер - указаны скорость ветра в м/с - средняя за 10 мин, порывы в срок и между сроками (в фигурных скобках) и направление, откуда дует ветер: С - северный, СВ - северо-восточный, В - восточный, ЮВ - юго-восточный, Ю - южный, ЮЗ - юго-западный, З - западный, СЗ - северо-западный.
Видимость - горизонтальная дальность видимости в метрах или километрах. При видимости от 1 до 10 км при отсутствии осадков обычно наблюдается дымка, при ухудшении видимости до 1 км и менее - туман. В сухую погоду видимость может ухудшаться дымом, пылью или мглою.
Явления - указаны атмосферные явления, наблюдавшиеся в срок или в последний час перед сроком; фигурными скобками обозначены явления, наблюдавшиеся между сроками (за 1-3 часа до срока); квадратными скобками обозначены град или гололедные отложения с указанием их диаметра в мм.
Облачность - указаны через наклонную черту общая и нижняя облачность в баллах и высота нижней границы облаков в метрах; квадратными скобками обозначены формы облаков: Ci - перистые, Cs - перисто-слоистые, Cc - перисто-кучевые, Ac - высококучевые, As - высокослоистые, Sc - слоисто-кучевые, Ns - слоисто-дождевые, Cu - кучевые, Cb - кучево-дождевые. Подробнее классификацию облаков см. в Атласе облаков (PDF).
T - Температура воздуха - температура, измеренная на высоте 2 м над землей.
Td - Температура точки росы - температура, при понижении до которой содержащийся в воздухе водяной пар достигнет насыщения.
f - Относительная влажность воздуха - влажноcть воздуха, измеренная на высоте 2 м над землей.
Te - Эффективная температура - температура, которую ощущает одетый по сезону человек в тени. Характеристика душности погоды. При расчете учитывается влияние влажности воздуха и скорости ветра на теплоощущения человека.
Tes - Эффективная температура на солнце - температура, которую ощущает человек, с поправкой на солнечный нагрев. Характеристика знойности погоды. Зависит от высоты солнца над горизонтом, облачности и скорости ветра. Ночью, в пасмурную погоду, а также при ветре 12 м/с и более поправка равна нулю.
P - Атмосферное давление - приведенное к уровню моря атмосферное давление.
Po - Атмосферное давление - измеренное на уровне метеостанции атмосферное давление.
Tmin - Минимальная температура - минимум температуры воздуха на высоте 2 м над землей.
Tmax - Максимальная температура - максимум температуры воздуха на высоте 2 м над землей.
R - Количество осадков - Количество выпавших осадков за период времени, мм. При наведении курсора мыши на число - период времени, за который выпало указанное количество осадков.
R24 - Количество осадков - Количество выпавших осадков за 24 часа, мм.
S - Снежный покров - Высота снежного покрова, см. При наведении курсора мыши на число - состояние снежного покрова и степень покрытия местности в баллах.